Location: Oriwa
(40.7500°S, 175.3333°E)
Time: 14:15:33
(UTC+00:00)

USA 281 - Pass Details

Date: 03 February 2023
Orbit: 1079 x 1080 km, 106.0° (Epoch: 28 March)

Event Time Altitude Azimuth Distance (km) Brightness Sun altitude
Rises 16:16:22 0° 152° (SSE) 3,912 7.4 -12.8°
Reaches altitude 10° 16:19:02 10° 145° (SE) 2,949 6.7 -12.4°
Maximum altitude 16:25:23 47° 72° (ENE) 1,417 4.2 -11.4°
Drops below altitude 10° 16:31:39 10° 360° (N) 2,917 5.2 -10.4°
Sets 16:34:16 0° 354° (N) 3,865 5.8 -10.0°
